Regional Weather Roundup
Issued by NWS

Home | Current Version | Previous Version | Graphics & Text | Print | Product List | Glossary Off
Versions: 1 2 3 4 5 6 7 8 9 10 11 12 13 14 15 16 17 18 19 20 21 22 23 24 25 26 27 28 29 30 31 32 33 34 35 36 37 38 39 40 41 42 43 44 45 46 47 48 49 50

000
ASUS43 KDMX 200507
RWRIA

WEATHER ROUNDUP FOR IOWA
NATIONAL WEATHER SERVICE DES MOINES IA
1200 AM CDT SAT SEP 20 2014

NOTE: "FAIR" INDICATES FEW OR NO CLOUDS BELOW 12,000 FEET WITH NO
SIGNIFICANT WEATHER AND/OR OBSTRUCTIONS TO VISIBILITY.

* - THESE STATIONS ARE NOT NWS STATIONS...THUS NOT UNDER NWS
QUALITY CONTROL.  THEY ALSO DO NOT REPORT WEATHER SUCH
AS PRECIPITATION OR FOG.

IAZ001>003-012>014-020>022-031>034-043>046-200600-
   NORTHWEST IOWA

CITY           SKY/WX    TMP DP  RH WIND       PRES   REMARKS
CARROLL *      CLEAR     72  68  88 SW16G28   29.80R
CHEROKEE *     TSTM      66  64  94 SW10      29.80F
DENISON *      CLEAR     72  70  94 S12G22    29.78R
LE MARS *        N/A     68  64  88 SW14G20   29.77R
ORANGE CITY *  CLEAR     70  66  88 S7        29.77S
SHELDON *      CLOUDY    68  68 100 S6        29.77R
SIOUX CITY     TSTM      68  65  90 W15G22    29.82R FOG
SPENCER        LGT RAIN  68  66  93 S5        29.78F
STORM LAKE *   HVY RAIN  63  63 100 W13G32    29.85R VSB 1/2
$$

IAZ055>058-069>071-079>083-090>094-200600-
   SOUTHWEST IOWA

CITY           SKY/WX    TMP DP  RH WIND       PRES   REMARKS
ATLANTIC *     CLEAR     72  68  88 S15       29.83F
AUDUBON *      CLEAR     70  63  78 S18G25    29.82S
CLARINDA *     CLEAR     70  68  94 S10G16    29.88S
COUNCIL BLFS * CLEAR     72  70  94 S16G22    29.82S
CRESTON *      CLEAR     68  68 100 S17G24    29.87S
HARLAN  *      CLEAR     70  68  94 S16G24    29.84S
LAMONI         CLEAR     69  66  90 S16G23    29.89F
RED OAK *      CLEAR     72  68  88 S12       29.85S
SHENANDOAH *     N/A     72  68  88 S12G22    29.86R
$$

IAZ047>049-059>061-072>074-084-200600-
   CENTRAL IOWA

CITY           SKY/WX    TMP DP  RH WIND       PRES   REMARKS
AMES           PTCLDY    68  66  93 S10       29.83S
ANKENY *       CLEAR     70  66  88 S13G18    29.84R
CHARITON *     PTCLDY    68  64  88 S15       29.87S
DES MOINES     MOCLDY    71  66  84 SW17      29.83S
GRINNELL*      CLEAR     64  61  88 S8        29.86R
KNOXVILLE *    CLEAR     68  64  88 S18G24    29.83F
MARSHALLTOWN   PTCLDY    67  64  90 S14       29.84R
PELLA *        CLEAR     68  64  86 S9G20     29.86F
PERRY *          N/A     70  66  88 SW8G16    29.83R
$$

IAZ004>006-015-016-023>025-035-036-200600-
   NORTH CENTRAL IOWA

CITY           SKY/WX    TMP DP  RH WIND       PRES   REMARKS
ALGONA *       RAIN      68  66  94 W14G28    29.81R
CLARION *        N/A     70  68  94 S17G28    29.80R
ESTHERVILLE    CLOUDY    67  64  90 SW9       29.76F
FORT DODGE *   CLOUDY    70  64  83 S12       29.80R
MASON CITY     CLOUDY    70  67  90 S14G25    29.80R
FOREST CITY *  CLOUDY    70  68  94 S15G26    29.77F
IOWA FALLS *   MOCLDY    68  64  88 S14G22    29.82R
$$

IAZ007>011-017>019-026>030-037>042-050>054-066-200600-
   NORTHEAST IOWA

CITY           SKY/WX    TMP DP  RH WIND       PRES   REMARKS
CEDAR RAPIDS   CLEAR     64  60  87 S10       29.85F
CHARLES CITY * CLOUDY    68  64  88 SW12      29.83R
CLINTON *      CLEAR     64  55  72 S10       29.92F
DECORAH *      CLEAR     66  61  82 SW9G21    29.79S
DUBUQUE        CLEAR     63  56  78 S18       29.85F
MONTICELLO *   CLEAR     64  59  82 S8G14     29.86S
OELWEIN *      CLEAR     66  61  82 S13G21    29.84R
WATERLOO       PTCLDY    67  62  84 S13       29.82R
$$

IAZ064-065-067-068-078-200600-
   EAST CENTRAL IOWA

CITY           SKY/WX    TMP DP  RH WIND       PRES   REMARKS
DAVENPORT      CLEAR     66  55  67 S15       29.90F
IOWA CITY      CLEAR     64  59  83 S8        29.88F
MT. PLEASANT * CLEAR     64  57  77 S12       29.91F
MUSCATINE *    CLEAR     66  57  72 S13       29.89F
QUAD CITIES    CLEAR     67  56  67 S10       29.90F
$$

IAZ062-063-075>077-085>089-095>099-200600-
   SOUTHEAST IOWA

CITY           SKY/WX    TMP DP  RH WIND       PRES   REMARKS
BURLINGTON     CLEAR     65  58  78 S13       29.92F
FAIRFIELD *    CLEAR     66  61  82 S13G21    29.88F
FORT MADISON * CLEAR     64  59  82 S9        29.94F
KEOKUK *       CLEAR     66  59  77 S10       29.93F
OSKALOOSA *      N/A     66  63  88 S12       29.87F
CENTERVILLE *  CLEAR     66  64  94 S12       29.90F
OTTUMWA        CLEAR     67  61  81 S12G21    29.86F
WASHINGTON *   CLEAR     66  61  82 S13       29.87F
$$

ABBREVIATIONS USED IN REMARKS
   TC - TEMPERATURES IN CELSIUS
  WCI - WIND CHILL INDEX
   HX - HEAT INDEX
  VSB - VISIBILITY
$$



USA.gov is the U.S. government's official web portal to all federal, state and local government web resources and services.